Time,TemperatureF,DewpointF,PressureIn,WindDirection,WindDirectionDegrees,WindSpeedMPH,WindSpeedGustMPH,Humidity,HourlyPrecipIn,Conditions,Clouds,dailyrainin,SoftwareType,DateUTC
2013-03-25 00:13:00,51.2,42.0,29.99,WSW,253,0.0,0.0,70,0.00,,,0.00,weatherlink.com 1.10,2013-03-25 07:13:00,
2013-03-25 00:28:00,51.0,42.0,29.99,WSW,253,0.0,0.0,71,0.00,,,0.00,weatherlink.com 1.10,2013-03-25 07:28:00,
2013-03-25 00:43:00,50.4,41.0,29.99,WSW,253,0.0,0.0,70,0.00,,,0.00,weatherlink.com 1.10,2013-03-25 07:43:00,
2013-03-25 00:58:00,50.0,40.0,29.99,WSW,253,0.0,0.0,68,0.00,,,0.00,weatherlink.com 1.10,2013-03-25 07:58:00,
2013-03-25 01:13:00,49.5,38.0,29.98,WSW,253,0.0,0.0,66,0.00,,,0.00,weatherlink.com 1.10,2013-03-25 08:13:00,
2013-03-25 01:28:00,49.1,38.0,29.98,SSW,212,0.0,1.0,67,0.00,,,0.00,weatherlink.com 1.10,2013-03-25 08:28:00,
2013-03-25 01:43:00,48.1,38.0,29.98,SSW,212,0.0,0.0,68,0.00,,,0.00,weatherlink.com 1.10,2013-03-25 08:43:00,
2013-03-25 01:58:00,47.5,38.0,29.98,SSW,212,0.0,0.0,69,0.00,,,0.00,weatherlink.com 1.10,2013-03-25 08:58:00,
2013-03-25 02:13:00,47.1,37.0,29.98,SSW,212,0.0,0.0,68,0.00,,,0.00,weatherlink.com 1.10,2013-03-25 09:13:00,
2013-03-25 02:28:00,46.2,37.0,29.97,SSW,212,0.0,0.0,70,0.00,,,0.00,weatherlink.com 1.10,2013-03-25 09:28:00,
2013-03-25 02:43:00,46.3,36.0,29.97,West,262,1.0,1.0,67,0.00,,,0.00,weatherlink.com 1.10,2013-03-25 09:43:00,
2013-03-25 02:58:00,47.1,38.0,29.97,West,260,0.0,1.0,70,0.00,,,0.00,weatherlink.com 1.10,2013-03-25 09:58:00,
2013-03-25 03:13:00,48.0,40.0,29.97,West,260,0.0,1.0,74,0.00,,,0.00,weatherlink.com 1.10,2013-03-25 10:13:00,
2013-03-25 03:28:00,46.5,40.0,29.97,West,260,0.0,0.0,77,0.00,,,0.00,weatherlink.com 1.10,2013-03-25 10:28:00,
2013-03-25 03:43:00,46.0,37.0,29.97,West,260,0.0,1.0,71,0.00,,,0.00,weatherlink.com 1.10,2013-03-25 10:43:00,
2013-03-25 03:58:00,46.8,37.0,29.96,West,260,0.0,1.0,68,0.00,,,0.00,weatherlink.com 1.10,2013-03-25 10:58:00,
2013-03-25 04:13:00,46.1,38.0,29.96,West,260,0.0,0.0,72,0.00,,,0.00,weatherlink.com 1.10,2013-03-25 11:13:00,
2013-03-25 04:30:00,45.6,38.0,29.96,West,260,0.0,0.0,74,0.00,,,0.00,weatherlink.com 1.10,2013-03-25 11:30:00,
2013-03-25 04:44:00,44.7,37.0,29.96,West,260,0.0,0.0,74,0.00,,,0.00,weatherlink.com 1.10,2013-03-25 11:44:00,
2013-03-25 04:59:00,44.5,37.0,29.96,SSE,160,0.0,0.0,76,0.00,,,0.00,weatherlink.com 1.10,2013-03-25 11:59:00,
2013-03-25 05:14:00,45.5,37.0,29.96,WSW,248,0.0,1.0,73,0.00,,,0.00,weatherlink.com 1.10,2013-03-25 12:14:00,
2013-03-25 05:29:00,44.6,37.0,29.96,WSW,246,0.0,0.0,74,0.00,,,0.00,weatherlink.com 1.10,2013-03-25 12:29:00,
2013-03-25 05:44:00,44.6,37.0,29.96,WSW,248,0.0,0.0,74,0.00,,,0.00,weatherlink.com 1.10,2013-03-25 12:44:00,
2013-03-25 05:59:00,44.7,37.0,29.96,WSW,253,0.0,0.0,74,0.00,,,0.00,weatherlink.com 1.10,2013-03-25 12:59:00,
2013-03-25 06:14:00,44.9,37.0,29.96,WSW,253,0.0,0.0,73,0.00,,,0.00,weatherlink.com 1.10,2013-03-25 13:14:00,
2013-03-25 06:29:00,44.4,37.0,29.96,WSW,253,0.0,0.0,75,0.00,,,0.00,weatherlink.com 1.10,2013-03-25 13:29:00,
2013-03-25 06:44:00,44.5,37.0,29.97,WSW,253,0.0,0.0,74,0.00,,,0.00,weatherlink.com 1.10,2013-03-25 13:44:00,
2013-03-25 06:59:00,44.4,37.0,29.97,WSW,253,0.0,0.0,76,0.00,,,0.00,weatherlink.com 1.10,2013-03-25 13:59:00,
2013-03-25 07:14:00,44.6,37.0,29.97,WSW,253,0.0,0.0,76,0.00,,,0.00,weatherlink.com 1.10,2013-03-25 14:14:00,
2013-03-25 07:29:00,44.8,38.0,29.97,WSW,253,0.0,0.0,77,0.00,,,0.00,weatherlink.com 1.10,2013-03-25 14:29:00,
2013-03-25 07:44:00,45.3,39.0,29.97,WSW,253,0.0,0.0,78,0.00,,,0.00,weatherlink.com 1.10,2013-03-25 14:44:00,
2013-03-25 07:59:00,46.3,40.0,29.98,WSW,253,0.0,0.0,80,0.00,,,0.00,weatherlink.com 1.10,2013-03-25 14:59:00,
2013-03-25 08:14:00,47.6,41.0,29.98,WSW,253,0.0,0.0,78,0.00,,,0.00,weatherlink.com 1.10,2013-03-25 15:14:00,
2013-03-25 08:29:00,51.2,42.0,29.98,WSW,255,0.0,0.0,70,0.00,,,0.00,weatherlink.com 1.10,2013-03-25 15:29:00,
2013-03-25 08:44:00,53.6,42.0,29.98,SE,129,0.0,0.0,66,0.00,,,0.00,weatherlink.com 1.10,2013-03-25 15:44:00,
2013-03-25 08:59:00,54.4,43.0,29.98,East,79,0.0,0.0,65,0.00,,,0.00,weatherlink.com 1.10,2013-03-25 15:59:00,
2013-03-25 09:14:00,55.9,44.0,29.98,ESE,117,1.0,2.0,65,0.00,,,0.00,weatherlink.com 1.10,2013-03-25 16:14:00,
2013-03-25 09:29:00,57.4,43.0,29.98,East,97,1.0,2.0,59,0.00,,,0.00,weatherlink.com 1.10,2013-03-25 16:29:00,
2013-03-25 09:44:00,57.3,44.0,29.98,East,82,1.0,4.0,62,0.00,,,0.00,weatherlink.com 1.10,2013-03-25 16:44:00,
2013-03-25 09:59:00,56.6,44.0,29.98,East,86,2.0,3.0,62,0.00,,,0.00,weatherlink.com 1.10,2013-03-25 16:59:00,
2013-03-25 10:14:00,57.7,44.0,29.98,NNE,33,1.0,3.0,60,0.00,,,0.00,weatherlink.com 1.10,2013-03-25 17:14:00,
2013-03-25 10:29:00,58.5,43.0,29.98,ESE,103,1.0,3.0,56,0.00,,,0.00,weatherlink.com 1.10,2013-03-25 17:29:00,
2013-03-25 10:44:00,60.1,44.0,29.99,NNE,32,1.0,3.0,56,0.00,,,0.00,weatherlink.com 1.10,2013-03-25 17:44:00,
2013-03-25 10:59:00,61.3,44.0,29.98,East,90,1.0,4.0,54,0.00,,,0.00,weatherlink.com 1.10,2013-03-25 17:59:00,
2013-03-25 11:14:00,61.1,44.0,29.98,NE,51,2.0,4.0,53,0.00,,,0.00,weatherlink.com 1.10,2013-03-25 18:14:00,
2013-03-25 11:29:00,61.1,44.0,29.98,ENE,63,2.0,4.0,53,0.00,,,0.00,weatherlink.com 1.10,2013-03-25 18:29:00,
2013-03-25 11:44:00,63.0,42.0,29.98,ESE,104,1.0,4.0,47,0.00,,,0.00,weatherlink.com 1.10,2013-03-25 18:44:00,
2013-03-25 11:59:00,62.9,43.0,29.98,ENE,74,1.0,5.0,48,0.00,,,0.00,weatherlink.com 1.10,2013-03-25 18:59:00,
2013-03-25 12:14:00,62.6,42.0,29.97,NW,319,1.0,5.0,48,0.00,,,0.00,weatherlink.com 1.10,2013-03-25 19:14:00,
2013-03-25 12:29:00,64.1,44.0,29.98,ESE,102,3.0,4.0,48,0.00,,,0.00,weatherlink.com 1.10,2013-03-25 19:29:00,
2013-03-25 12:44:00,65.1,42.0,29.98,NE,54,1.0,5.0,43,0.00,,,0.00,weatherlink.com 1.10,2013-03-25 19:44:00,
2013-03-25 13:00:00,66.6,44.0,29.97,East,86,1.0,4.0,45,0.00,,,0.00,weatherlink.com 1.10,2013-03-25 20:00:00,
2013-03-25 13:15:00,67.2,43.0,29.96,ESE,108,3.0,3.0,42,0.00,,,0.00,weatherlink.com 1.10,2013-03-25 20:15:00,
2013-03-25 13:30:00,68.0,43.0,29.96,ESE,105,2.0,7.0,40,0.00,,,0.00,weatherlink.com 1.10,2013-03-25 20:30:00,
2013-03-25 13:45:00,66.3,42.0,29.96,East,82,2.0,6.0,41,0.00,,,0.00,weatherlink.com 1.10,2013-03-25 20:45:00,
2013-03-25 14:00:00,66.0,41.0,29.95,East,82,2.0,6.0,41,0.00,,,0.00,weatherlink.com 1.10,2013-03-25 21:00:00,
2013-03-25 14:15:00,65.6,42.0,29.95,East,96,2.0,5.0,43,0.00,,,0.00,weatherlink.com 1.10,2013-03-25 21:15:00,
2013-03-25 14:30:00,65.2,43.0,29.94,ENE,60,1.0,5.0,44,0.00,,,0.00,weatherlink.com 1.10,2013-03-25 21:30:00,
2013-03-25 14:45:00,66.8,42.0,29.93,South,184,3.0,3.0,41,0.00,,,0.00,weatherlink.com 1.10,2013-03-25 21:45:00,
2013-03-25 15:00:00,67.3,42.0,29.93,NNW,331,2.0,4.0,40,0.00,,,0.00,weatherlink.com 1.10,2013-03-25 22:00:00,
2013-03-25 15:15:00,68.0,41.0,29.93,ENE,68,2.0,6.0,38,0.00,,,0.00,weatherlink.com 1.10,2013-03-25 22:15:00,
2013-03-25 15:30:00,68.4,28.0,29.92,ENE,57,1.0,5.0,22,0.00,,,0.00,weatherlink.com 1.10,2013-03-25 22:30:00,
2013-03-25 15:45:00,64.7,27.0,29.93,East,94,4.0,8.0,24,0.00,,,0.00,weatherlink.com 1.10,2013-03-25 22:45:00,
2013-03-25 16:15:00,60.8,39.0,29.93,SE,129,3.0,6.0,44,0.00,,,0.00,weatherlink.com 1.10,2013-03-25 23:15:00,
2013-03-25 16:30:00,59.7,39.0,29.93,NE,53,0.0,4.0,46,0.00,,,0.00,weatherlink.com 1.10,2013-03-25 23:30:00,
2013-03-25 16:45:00,60.2,37.0,29.92,ENE,70,2.0,3.0,42,0.00,,,0.00,weatherlink.com 1.10,2013-03-25 23:45:00,
2013-03-25 17:00:00,60.3,38.0,29.92,ESE,117,1.0,4.0,44,0.00,,,0.00,weatherlink.com 1.10,2013-03-26 00:00:00,
2013-03-25 17:15:00,59.9,37.0,29.91,East,101,2.0,5.0,43,0.00,,,0.00,weatherlink.com 1.10,2013-03-26 00:15:00,
2013-03-25 19:15:00,53.5,38.0,29.91,SE,145,0.0,1.0,56,0.00,,,0.00,weatherlink.com 1.10,2013-03-26 02:15:00,
2013-03-25 19:30:00,52.8,39.0,29.92,SE,146,0.0,1.0,61,0.00,,,0.00,weatherlink.com 1.10,2013-03-26 02:30:00,
2013-03-25 19:45:00,52.3,39.0,29.92,SSW,207,0.0,2.0,62,0.00,,,0.00,weatherlink.com 1.10,2013-03-26 02:45:00,
2013-03-25 20:00:00,52.0,40.0,29.93,SSW,207,0.0,0.0,65,0.00,,,0.00,weatherlink.com 1.10,2013-03-26 03:00:00,
2013-03-25 20:15:00,52.0,42.0,29.94,SSE,148,1.0,2.0,69,0.00,,,0.00,weatherlink.com 1.10,2013-03-26 03:15:00,
2013-03-25 20:30:00,50.6,45.0,29.92,West,259,0.0,1.0,80,0.00,,,0.00,weatherlink.com 1.10,2013-03-26 03:30:00,
2013-03-25 20:45:00,49.9,45.0,29.91,SSE,166,1.0,3.0,82,0.01,,,0.01,weatherlink.com 1.10,2013-03-26 03:45:00,
2013-03-25 21:00:00,49.6,44.0,29.93,NNE,12,3.0,7.0,80,0.01,,,0.01,weatherlink.com 1.10,2013-03-26 04:00:00,
2013-03-25 21:15:00,49.2,45.0,29.91,West,260,0.0,1.0,86,0.02,,,0.02,weatherlink.com 1.10,2013-03-26 04:15:00,
2013-03-25 21:30:00,48.8,46.0,29.92,SE,139,2.0,2.0,89,0.02,,,0.02,weatherlink.com 1.10,2013-03-26 04:30:00,
2013-03-25 21:45:00,48.6,46.0,29.93,WNW,297,0.0,1.0,89,0.01,,,0.02,weatherlink.com 1.10,2013-03-26 04:45:00,
2013-03-25 22:00:00,48.0,45.0,29.93,West,274,0.0,2.0,89,0.01,,,0.02,weatherlink.com 1.10,2013-03-26 05:00:00,
2013-03-25 22:15:00,47.4,45.0,29.94,SSE,158,0.0,1.0,90,0.00,,,0.02,weatherlink.com 1.10,2013-03-26 05:15:00,
2013-03-25 22:30:00,46.6,44.0,29.94,East,91,0.0,0.0,91,0.00,,,0.02,weatherlink.com 1.10,2013-03-26 05:30:00,
2013-03-25 22:45:00,46.0,44.0,29.95,SE,139,0.0,0.0,92,0.00,,,0.02,weatherlink.com 1.10,2013-03-26 05:45:00,
2013-03-25 23:00:00,45.5,43.0,29.94,ESE,105,0.0,0.0,92,0.00,,,0.02,weatherlink.com 1.10,2013-03-26 06:00:00,
2013-03-25 23:15:00,45.1,43.0,29.94,ESE,117,0.0,0.0,92,0.00,,,0.02,weatherlink.com 1.10,2013-03-26 06:15:00,
2013-03-25 23:30:00,44.6,43.0,29.95,SE,130,0.0,1.0,92,0.00,,,0.02,weatherlink.com 1.10,2013-03-26 06:30:00,
2013-03-25 23:45:00,44.3,42.0,29.95,SSE,155,0.0,1.0,92,0.01,,,0.03,weatherlink.com 1.10,2013-03-26 06:45:00,